Weather History for Altus AFB, OK

Change the Weather History Date:

Wednesday, December 19, 2012

  Actual Average Record
Temperature  
Mean Temperature 50 °F -  
Max Temperature 66 °F 48 °F 68 °F (2013)
Min Temperature 35 °F 25 °F 8 °F (1996)
Degree Days  
Heating Degree Days 14    
Moisture  
Dew Point 33 °F    
Average Humidity 57    
Maximum Humidity 86    
Minimum Humidity 27    
Precipitation  
Precipitation 0.23 in - - ()
Sea Level Pressure  
Sea Level Pressure 29.62 in    
Wind  
Wind Speed 13 mph (SSW)    
Max Wind Speed 36 mph    
Max Gust Speed 48 mph    
Visibility 10 miles    
Events      
Averages and records for this station are not official NWS values.
T = Trace of Precipitation, MM = Missing Value Source: NWS Daily Summary

Daily Weather History Graph

Daily Weather History Graph

Search for Another Location

Airport:

Trip Planner

Search our weather history database for the weather conditions in past years. The results will help you decide how hot, cold, wet, or windy it might be!

Date:

Astronomy

Dec. 19, 2012 Rise Set
Actual Time 7:39 AM CST 5:29 PM CST
Civil Twilight 7:11 AM CST 5:57 PM CST
Nautical Twilight 6:39 AM CST 6:29 PM CST
Astronomical Twilight 6:09 AM CST 6:59 PM CST
Moon 12:05 PM CST (12/19) No Moon Set
Length of Visible Light 10h 46m
Length of Day
9h 49m
Waxing Crescent, 45% of the Moon is Illuminated
Dec 19
Waxing Crescent
Dec 19
First Quarter
Dec 28
Full
Jan 4
Last Quarter
Jan 11
New

Hourly Weather History & Observations

Time (CST) Temp. Windchill Dew Point Humidity Pressure Visibility Wind Dir Wind Speed Gust Speed Precip Events Conditions
12:55 AM 35.6 °F 31.7 °F 30.9 °F 83% 29.70 in 10.0 mi NE 4.6 mph - N/A   Clear
1:55 AM 40.3 °F 34.9 °F 31.5 °F 71% 29.68 in 10.0 mi NNE 8.1 mph - N/A   Clear
2:55 AM 40.6 °F 36.7 °F 31.6 °F 70% 29.68 in 10.0 mi NW 5.8 mph - N/A   Clear
3:55 AM 37.2 °F 31.9 °F 33.4 °F 86% 29.65 in 10.0 mi ENE 6.9 mph - N/A   Partly Cloudy
4:55 AM 38.7 °F 35.2 °F 34.7 °F 86% 29.64 in 10.0 mi East 4.6 mph - N/A   Clear
5:55 AM 39.9 °F 36.7 °F 34.3 °F 80% 29.62 in 10.0 mi ESE 4.6 mph - N/A   Mostly Cloudy
6:55 AM 41.2 °F 36.6 °F 35.1 °F 79% 29.62 in 10.0 mi ESE 6.9 mph - N/A   Scattered Clouds
7:55 AM 42.1 °F 37.1 °F 34.7 °F 75% 29.64 in 10.0 mi SE 8.1 mph - N/A   Overcast
8:55 AM 43.2 °F 38.4 °F 34.9 °F 73% 29.63 in 10.0 mi SE 8.1 mph - N/A   Scattered Clouds
9:55 AM 44.6 °F 39.7 °F 35.1 °F 69% 29.62 in 10.0 mi SSE 9.2 mph - N/A   Clear
10:55 AM 48.0 °F - 35.6 °F 62% 29.61 in 10.0 mi South 6.9 mph - N/A   Mostly Cloudy
11:55 AM 51.6 °F - 41.2 °F 68% 29.58 in 10.0 mi SSE 11.5 mph - N/A   Partly Cloudy
12:55 PM 52.7 °F - 43.7 °F 71% 29.55 in 10.0 mi SSE 10.4 mph - N/A   Mostly Cloudy
1:55 PM 52.9 °F - 44.2 °F 72% 29.52 in 10.0 mi SSE 12.7 mph - N/A   Mostly Cloudy
2:55 PM 55.6 °F - 44.6 °F 67% 29.50 in 10.0 mi South 12.7 mph - N/A   Mostly Cloudy
3:39 PM 59.0 °F - 41.0 °F 51% 29.48 in 10.0 mi South 16.1 mph - N/A   Mostly Cloudy
3:55 PM 60.3 °F - 38.8 °F 45% 29.47 in 10.0 mi South 18.4 mph - N/A   Mostly Cloudy
4:34 PM 60.8 °F - 35.6 °F 39% 29.49 in 10.0 mi South 18.4 mph 25.3 mph N/A   Overcast
4:55 PM 62.4 °F - 32.4 °F 32% 29.49 in 10.0 mi SSW 17.3 mph - N/A   Overcast
5:55 PM 63.7 °F - 30.9 °F 29% 29.52 in 8.0 mi SW 23.0 mph 28.8 mph N/A   Overcast
5:59 PM 66.2 °F - 32.0 °F 28% 29.53 in 6.0 mi WNW 34.5 mph 41.4 mph N/A   Haze
6:00 PM 66.2 °F - 32.0 °F 28% 29.53 in 5.0 mi WNW 34.5 mph 41.4 mph N/A   Haze
6:12 PM 60.8 °F - 26.6 °F 27% 29.57 in 9.0 mi NW 33.4 mph 44.9 mph N/A   Mostly Cloudy
6:17 PM 59.0 °F - 26.6 °F 29% 29.57 in 10.0 mi NW 27.6 mph 40.3 mph N/A   Scattered Clouds
6:55 PM 55.6 °F - 25.0 °F 31% 29.60 in 10.0 mi WNW 17.3 mph 28.8 mph N/A   Clear
7:55 PM 49.6 °F - 21.4 °F 33% 29.71 in 10.0 mi NW 29.9 mph 47.2 mph N/A   Clear
8:55 PM 41.7 °F 31.0 °F 25.0 °F 52% 29.79 in 10.0 mi WNW 28.8 mph 40.3 mph N/A   Clear
9:55 PM 38.5 °F 26.4 °F 25.0 °F 58% 29.86 in 10.0 mi WNW 29.9 mph 43.7 mph N/A   Clear
10:55 PM 36.9 °F 23.2 °F 24.1 °F 60% 29.91 in 10.0 mi NW 35.7 mph 48.3 mph N/A   Clear
11:55 PM 36.1 °F 23.0 °F 22.3 °F 57% 29.97 in 10.0 mi NW 31.1 mph 41.4 mph 0.23 in   Clear